Alexandria, MN

12:07 PM CDT on April 27, 2017 (GMT -0500)
Chandler

Weather History for KAXN - October, 2012

Change the Weather History Date:

Monday, October 15, 2012

  Actual Average Record
Temperature  
Mean Temperature 45 °F -  
Max Temperature 60 °F 51 °F 80 °F (1953)
Min Temperature 30 °F 34 °F 19 °F (1952)
Degree Days  
Heating Degree Days 20    
Moisture  
Dew Point 34 °F    
Average Humidity 68    
Maximum Humidity 96    
Minimum Humidity 41    
Precipitation  
Precipitation 0.00 in - - ()
Sea Level Pressure  
Sea Level Pressure 29.87 in    
Wind  
Wind Speed 6 mph (South)    
Max Wind Speed 16 mph    
Max Gust Speed -    
Visibility 9 miles    
Events      
Averages and records for this station are not official NWS values.
T = Trace of Precipitation, MM = Missing Value Source: NWS Daily Summary

Daily Weather History Graph

Daily Weather History Graph

Search for Another Location

Airport or City:

Trip Planner

Search our weather history database for the weather conditions in past years. The results will help you decide how hot, cold, wet, or windy it might be!

Date:

Astronomy

Oct. 15, 2012 Rise Set
Actual Time 7:38 AM CDT 6:34 PM CDT
Civil Twilight 7:08 AM CDT 7:04 PM CDT
Nautical Twilight 6:34 AM CDT 7:39 PM CDT
Astronomical Twilight 5:59 AM CDT 8:13 PM CDT
Moon 7:53 AM CDT (10/15) 6:30 PM CDT (10/15)
Length of Visible Light 11h 55m
Length of Day
10h 55m
New Moon, 0% of the Moon is Illuminated
Oct 15
New Moon
Oct 21
First Quarter
Oct 29
Full
Nov 6
Last Quarter
Nov 13
New

Hourly Weather History & Observations

Time (CDT) Temp. Windchill Dew Point Humidity Pressure Visibility Wind Dir Wind Speed Gust Speed Precip Events Conditions
12:53 AM 41.0 °F 39.0 °F 35.1 °F 79% 29.95 in 10.0 mi NW 3.5 mph - N/A   Clear
1:53 AM 37.0 °F 33.3 °F 34.0 °F 89% 29.96 in 10.0 mi WNW 4.6 mph - N/A   Clear
2:53 AM 33.1 °F - 30.0 °F 89% 29.97 in 10.0 mi Calm Calm - N/A   Clear
3:53 AM 34.0 °F - 30.9 °F 89% 29.95 in 10.0 mi Calm Calm - N/A   Clear
4:53 AM 33.1 °F - 30.9 °F 92% 29.95 in 10.0 mi Calm Calm - N/A   Clear
5:53 AM 30.0 °F 26.5 °F 28.9 °F 96% 29.95 in 7.0 mi SW 3.5 mph - N/A   Clear
6:29 AM 30.2 °F 23.4 °F 28.4 °F 93% 29.92 in 1.8 mi SW 6.9 mph - N/A   Clear
6:37 AM 30.2 °F 26.7 °F 28.4 °F 93% 29.92 in 0.8 mi SSW 3.5 mph - N/A   Clear
6:46 AM 30.2 °F - 28.4 °F 93% 29.92 in 1.5 mi Calm Calm - N/A   Clear
6:49 AM 30.2 °F - 28.4 °F 93% 29.92 in 4.0 mi Calm Calm - N/A   Clear
6:53 AM 30.0 °F - 28.0 °F 92% 29.96 in 8.0 mi Calm Calm - N/A   Clear
7:53 AM 33.1 °F 30.0 °F 30.9 °F 92% 29.97 in 7.0 mi SW 3.5 mph - N/A   Clear
8:53 AM 39.0 °F 36.8 °F 36.0 °F 89% 29.96 in 10.0 mi SE 3.5 mph - N/A   Clear
9:53 AM 46.9 °F - 37.0 °F 68% 29.96 in 10.0 mi SSW 6.9 mph - N/A   Clear
10:53 AM 50.0 °F - 35.1 °F 57% 29.96 in 10.0 mi SSW 6.9 mph - N/A   Clear
11:53 AM 53.1 °F - 37.0 °F 55% 29.95 in 10.0 mi SSW 12.7 mph - N/A   Scattered Clouds
12:53 PM 57.0 °F - 37.0 °F 47% 29.91 in 10.0 mi South 12.7 mph - N/A   Mostly Cloudy
1:53 PM 59.0 °F - 36.0 °F 42% 29.87 in 10.0 mi South 10.4 mph - N/A   Overcast
2:53 PM 59.0 °F - 36.0 °F 42% 29.85 in 10.0 mi South 13.8 mph - N/A   Overcast
3:53 PM 59.0 °F - 36.0 °F 42% 29.83 in 10.0 mi South 16.1 mph - N/A   Mostly Cloudy
4:53 PM 60.1 °F - 36.0 °F 41% 29.81 in 10.0 mi SSE 12.7 mph - N/A   Mostly Cloudy
5:53 PM 57.9 °F - 36.0 °F 44% 29.78 in 10.0 mi SSE 11.5 mph - N/A   Clear
6:53 PM 57.9 °F - 36.0 °F 44% 29.76 in 10.0 mi SSE 12.7 mph - N/A   Clear
7:53 PM 55.9 °F - 36.0 °F 47% 29.73 in 10.0 mi SSE 12.7 mph - N/A   Clear
8:53 PM 57.0 °F - 36.0 °F 45% 29.72 in 10.0 mi SSE 15.0 mph - N/A   Clear
9:53 PM 55.9 °F - 36.0 °F 47% 29.70 in 10.0 mi SSE 12.7 mph - N/A   Scattered Clouds
10:53 PM 57.9 °F - 37.0 °F 46% 29.67 in 10.0 mi South 12.7 mph - N/A   Overcast
11:53 PM 59.0 °F - 37.9 °F 46% 29.65 in 10.0 mi South 12.7 mph - N/A   Overcast